Location: Laas
(43.4693°N, 0.3073°E)
Time: 14:48:48
(UTC+00:00)

YAOGAN 1 - Pass Details

Date: 25 October 2020
Orbit: 618 x 620 km, 97.9° (Epoch: 23 November)

Event Time Altitude Azimuth Distance (km) Brightness Sun altitude
Rises 19:18:04 0° 189° (S) 2,883 6.0 -25.8°
Reaches altitude 10° 19:20:26 10° 199° (SSW) 1,982 5.3 -26.2°
Maximum altitude 19:24:19 32° 263° (W) 1,069 4.3 -26.9°
Drops below altitude 10° 19:28:13 10° 328° (NNW) 1,996 5.6 -27.6°
Sets 19:30:36 0° 338° (NNW) 2,907 6.4 -28.0°
